Cape Cod CGAS, MA

5:28 PM EDT on May 25, 2017 (GMT -0400)
Cape Cod Coast Guard Air Station

Weather History for KFMH - January, 2014

Change the Weather History Date:

Friday, January 10, 2014

  Actual Average Record
Temperature  
Mean Temperature 22 °F -  
Max Temperature 39 °F 35 °F 59 °F (2016)
Min Temperature 6 °F 21 °F -2 °F (2004)
Degree Days  
Heating Degree Days 42    
Moisture  
Dew Point 28 °F    
Average Humidity 91    
Maximum Humidity 100    
Minimum Humidity 58    
Precipitation  
Precipitation 0.00 in - - ()
Sea Level Pressure  
Sea Level Pressure 30.46 in    
Wind  
Wind Speed 3 mph (SSE)    
Max Wind Speed 13 mph    
Max Gust Speed -    
Visibility 7 miles    
Events Rain , Snow    
Averages and records for this station are not official NWS values.
T = Trace of Precipitation, MM = Missing Value Source: NWS Daily Summary

Daily Weather History Graph

Daily Weather History Graph

Search for Another Location

Airport or City:

Trip Planner

Search our weather history database for the weather conditions in past years. The results will help you decide how hot, cold, wet, or windy it might be!

Date:

Astronomy

Jan. 10, 2014 Rise Set
Actual Time 7:08 AM EST 4:31 PM EST
Civil Twilight 6:37 AM EST 5:02 PM EST
Nautical Twilight 6:02 AM EST 5:36 PM EST
Astronomical Twilight 5:29 AM EST 6:10 PM EST
Moon 12:34 PM EST (1/10) 2:11 AM EST (1/10)
Length of Visible Light 10h 24m
Length of Day
9h 22m
Waxing Gibbous, 75% of the Moon is Illuminated
Jan 10
Waxing Gibbous
Jan 15
Full
Jan 24
Last Quarter
Jan 30
New
Feb 6
First Quarter

Hourly Weather History & Observations

Time (EST) Temp. Windchill Dew Point Humidity Pressure Visibility Wind Dir Wind Speed Gust Speed Precip Events Conditions
12:15 AM 6.8 °F - 5.0 °F 92% 30.60 in 10.0 mi Calm Calm - N/A   Partly Cloudy
12:35 AM 8.6 °F - 5.0 °F 85% 30.60 in 10.0 mi Calm Calm - N/A   Scattered Clouds
12:55 AM 6.8 °F - 5.0 °F 92% 30.60 in 10.0 mi Calm Calm - N/A   Scattered Clouds
1:15 AM 6.8 °F - 3.2 °F 85% 30.60 in 10.0 mi Calm Calm - N/A   Partly Cloudy
1:35 AM 6.8 °F - 3.2 °F 85% 30.61 in 10.0 mi Calm Calm - N/A   Partly Cloudy
1:55 AM 6.8 °F - 5.0 °F 92% 30.62 in 10.0 mi Calm Calm - N/A   Partly Cloudy
2:15 AM 6.8 °F - 3.2 °F 85% 30.61 in 10.0 mi Calm Calm - N/A   Partly Cloudy
2:35 AM 8.6 °F 2.0 °F 5.0 °F 85% 30.60 in 10.0 mi NE 3.5 mph - N/A   Mostly Cloudy
2:55 AM 8.6 °F - 5.0 °F 85% 30.60 in 10.0 mi Calm Calm - N/A   Overcast
3:15 AM 8.6 °F 2.0 °F 6.8 °F 92% 30.59 in 10.0 mi East 3.5 mph - N/A   Overcast
3:35 AM 10.4 °F - 6.8 °F 85% 30.59 in 10.0 mi Calm Calm - N/A   Overcast
3:55 AM 14.0 °F 8.2 °F 10.4 °F 86% 30.58 in 10.0 mi East 3.5 mph - N/A   Overcast
4:15 AM 17.6 °F - 14.0 °F 86% 30.58 in 10.0 mi Calm Calm - N/A   Overcast
4:35 AM 17.6 °F - 14.0 °F 86% 30.57 in 10.0 mi Calm Calm - N/A   Overcast
4:55 AM 17.6 °F 9.3 °F 14.0 °F 86% 30.56 in 10.0 mi SE 5.8 mph - N/A   Overcast
5:15 AM 21.2 °F 14.9 °F 15.8 °F 80% 30.55 in 10.0 mi SSE 4.6 mph - N/A   Overcast
5:35 AM 23.0 °F - 17.6 °F 80% 30.56 in 10.0 mi Calm Calm - N/A   Overcast
5:55 AM 23.0 °F - 19.4 °F 86% 30.56 in 10.0 mi Calm Calm - N/A   Overcast
6:15 AM 23.0 °F 18.4 °F 19.4 °F 86% 30.57 in 10.0 mi South 3.5 mph - N/A   Overcast
6:35 AM 24.8 °F 19.1 °F 21.2 °F 86% 30.55 in 10.0 mi SE 4.6 mph - N/A   Overcast
6:55 AM 26.6 °F 22.6 °F 23.0 °F 86% 30.55 in 10.0 mi SSE 3.5 mph - N/A   Mostly Cloudy
7:15 AM 26.6 °F 19.1 °F 24.8 °F 93% 30.54 in 1.5 mi SE 6.9 mph - 0.03 in Snow Light Snow
7:35 AM 28.4 °F 22.2 °F 26.6 °F 93% 30.52 in 1.2 mi SSE 5.8 mph - 0.06 in Snow Light Snow
7:55 AM 28.4 °F 24.6 °F 26.6 °F 93% 30.52 in 1.0 mi South 3.5 mph - 0.14 in Snow Light Snow
8:15 AM 30.2 °F 26.7 °F 28.4 °F 93% 30.52 in 2.0 mi South 3.5 mph - 0.02 in Snow Light Snow
8:35 AM 30.2 °F 26.7 °F 28.4 °F 93% 30.52 in 5.0 mi SSW 3.5 mph - 0.02 in Snow Light Snow
8:55 AM 32.0 °F 27.5 °F 28.4 °F 87% 30.52 in 8.0 mi South 4.6 mph - 0.02 in Snow Light Snow
9:15 AM 32.0 °F 27.5 °F 30.2 °F 93% 30.52 in 8.0 mi South 4.6 mph - N/A   Overcast
9:35 AM 32.0 °F 27.5 °F 30.2 °F 93% 30.52 in 9.0 mi South 4.6 mph - N/A   Overcast
9:55 AM 32.0 °F 27.5 °F 32.0 °F 100% 30.51 in 9.0 mi South 4.6 mph - N/A   Overcast
10:15 AM 32.0 °F - 32.0 °F 100% 30.51 in 10.0 mi Calm Calm - N/A   Overcast
10:35 AM 32.0 °F - 32.0 °F 100% 30.50 in 10.0 mi Calm Calm - N/A   Overcast
10:55 AM 32.0 °F 27.5 °F 32.0 °F 100% 30.49 in 10.0 mi SSE 4.6 mph - N/A   Overcast
11:15 AM 32.0 °F 25.6 °F 32.0 °F 100% 30.48 in 10.0 mi SSE 6.9 mph - N/A   Overcast
11:35 AM 33.8 °F 27.7 °F 32.0 °F 93% 30.46 in 10.0 mi SSE 6.9 mph - N/A   Overcast
11:55 AM 35.6 °F 29.9 °F 32.0 °F 87% 30.45 in 10.0 mi South 6.9 mph - N/A   Overcast
12:15 PM 35.6 °F 28.0 °F 32.0 °F 87% 30.44 in 10.0 mi South 10.4 mph - N/A   Overcast
12:35 PM 35.6 °F 29.2 °F 32.0 °F 87% 30.43 in 10.0 mi South 8.1 mph - N/A   Overcast
12:55 PM 35.6 °F 29.2 °F 32.0 °F 87% 30.41 in 10.0 mi South 8.1 mph - N/A   Overcast
1:15 PM 37.4 °F 31.4 °F 33.8 °F 87% 30.42 in 9.0 mi South 8.1 mph - N/A   Overcast
1:35 PM 37.4 °F 30.8 °F 33.8 °F 87% 30.41 in 9.0 mi South 9.2 mph - N/A   Overcast
1:55 PM 37.4 °F 32.1 °F 35.6 °F 93% 30.40 in 7.0 mi South 6.9 mph - N/A   Overcast
2:15 PM 37.4 °F 32.1 °F 35.6 °F 93% 30.41 in 7.0 mi South 6.9 mph - N/A   Overcast
2:35 PM 37.4 °F 32.8 °F 35.6 °F 93% 30.41 in 5.0 mi South 5.8 mph - N/A Rain Light Rain
2:55 PM 37.4 °F 30.3 °F 35.6 °F 93% 30.40 in 4.0 mi South 10.4 mph - N/A Rain Light Rain
3:15 PM 37.4 °F 33.8 °F 35.6 °F 93% 30.39 in 3.0 mi SSE 4.6 mph - N/A Rain Light Rain
3:35 PM 37.4 °F 34.9 °F 35.6 °F 93% 30.40 in 6.0 mi SE 3.5 mph - N/A   Overcast
3:55 PM 35.6 °F 30.7 °F 35.6 °F 100% 30.39 in 4.0 mi SE 5.8 mph - N/A   Overcast
4:15 PM 35.6 °F 32.8 °F 35.6 °F 100% 30.39 in 3.0 mi SE 3.5 mph - N/A   Overcast
4:35 PM 35.6 °F 32.8 °F 35.6 °F 100% 30.38 in 3.0 mi SE 3.5 mph - N/A   Overcast
4:55 PM 35.6 °F - 35.6 °F 100% 30.38 in 2.5 mi Calm Calm - N/A   Overcast
5:15 PM 35.6 °F 29.9 °F 35.6 °F 100% 30.38 in 3.0 mi South 6.9 mph - N/A   Overcast
5:35 PM 39.2 °F 33.6 °F 37.4 °F 93% 30.38 in 7.0 mi South 8.1 mph - N/A   Overcast
5:55 PM 39.2 °F 34.2 °F 37.4 °F 93% 30.37 in 5.0 mi South 6.9 mph - N/A   Overcast
6:15 PM 39.2 °F 33.6 °F 37.4 °F 93% 30.38 in 7.0 mi South 8.1 mph - N/A   Overcast
6:35 PM 39.2 °F 34.2 °F 37.4 °F 93% 30.38 in 1.5 mi South 6.9 mph - N/A   Overcast
6:55 PM 39.2 °F 33.0 °F 37.4 °F 93% 30.38 in 2.0 mi South 9.2 mph - N/A   Overcast
7:15 PM 39.2 °F 33.6 °F 37.4 °F 93% 30.38 in 3.0 mi South 8.1 mph - N/A Rain Light Rain
7:35 PM 39.2 °F 33.6 °F 37.4 °F 93% 30.37 in 6.0 mi South 8.1 mph - N/A   Overcast
7:55 PM 39.2 °F 34.2 °F 37.4 °F 93% 30.37 in 4.0 mi South 6.9 mph - N/A   Overcast
8:15 PM 39.2 °F 35.0 °F 37.4 °F 93% 30.37 in 3.0 mi SSE 5.8 mph - N/A Rain Light Rain
8:35 PM 39.2 °F 35.0 °F 37.4 °F 93% 30.36 in 5.0 mi SSE 5.8 mph - N/A   Overcast
8:55 PM 37.4 °F 32.8 °F 37.4 °F 100% 30.35 in 6.0 mi SE 5.8 mph - N/A   Overcast
9:15 PM 37.4 °F 32.8 °F 37.4 °F 100% 30.35 in 7.0 mi SSE 5.8 mph - N/A   Overcast
9:35 PM 37.4 °F 32.1 °F 37.4 °F 100% 30.33 in 9.0 mi SE 6.9 mph - N/A   Overcast
9:55 PM 37.4 °F 32.8 °F 37.4 °F 100% 30.33 in 8.0 mi SSE 5.8 mph - N/A   Overcast
10:15 PM 37.4 °F 32.8 °F 37.4 °F 100% 30.33 in 10.0 mi SE 5.8 mph - N/A   Overcast
10:35 PM 37.4 °F 33.8 °F 37.4 °F 100% 30.32 in 9.0 mi SSE 4.6 mph - N/A   Overcast
10:55 PM 37.4 °F 32.8 °F 37.4 °F 100% 30.31 in 7.0 mi SSE 5.8 mph - N/A   Overcast
11:15 PM 37.4 °F 33.8 °F 37.4 °F 100% 30.30 in 4.0 mi SE 4.6 mph - N/A   Overcast
11:35 PM 37.4 °F 32.8 °F 37.4 °F 100% 30.29 in 1.2 mi SSE 5.8 mph - N/A   Overcast
11:55 PM 39.2 °F 37.0 °F 37.4 °F 93% 30.29 in 0.8 mi South 3.5 mph - N/A   Overcast